OpenBCM V2.0.2 (Linux)

Packet Radio Mailbox

IZ3LSV

[San Dona' di P. JN]

 Login: GUEST





  
CX2SA  > KEPS     12.07.13 04:15l 220 Lines 5761 Bytes #999 (0) @ WW
BID : ORB13192.W
Read: GUEST
Subj: Orbital Elements  13192.WEATHER
Path: IZ3LSV<IQ5KG<IK1NHL<CX2SA
Sent: 130712/0208Z @:CX2SA.SAL.URY.SA #:8468 [Salto] FBB7.00e $:ORB13192.W
From: CX2SA@CX2SA.SAL.URY.SA
To  : KEPS@AMSAT


HR AMSAT ORBITAL ELEMENTS FOR WEATHER SATELLITES
FROM WA5QGD FORT WORTH,TX July 11, 2013
BID: ORB13192.W
TO ALL RADIO AMATEURS BT

Satellite: NOAA-10
Catalog number: 16969
Epoch time:      13192.15402125
Element set:     421
Inclination:      098.5446 deg
RA of node:       219.4696 deg
Eccentricity:    0.0012791
Arg of perigee:   170.3854 deg
Mean anomaly:     233.7766 deg
Mean motion:   14.27650639 rev/day
Decay rate:        2.0e-07 rev/day^2
Epoch rev:           39536
Checksum:              312

Satellite: NOAA-11
Catalog number: 19531
Epoch time:      13192.13868623
Element set:     429
Inclination:      098.7101 deg
RA of node:       274.6071 deg
Eccentricity:    0.0011407
Arg of perigee:   187.5885 deg
Mean anomaly:     230.6086 deg
Mean motion:   14.15020954 rev/day
Decay rate:        2.9e-07 rev/day^2
Epoch rev:           27951
Checksum:              299

Satellite: NOAA-12
Catalog number: 21263
Epoch time:      13192.11312726
Element set:     893
Inclination:      098.6963 deg
RA of node:       217.3087 deg
Eccentricity:    0.0014744
Arg of perigee:   147.2096 deg
Mean anomaly:     262.5716 deg
Mean motion:   14.25575576 rev/day
Decay rate:        1.1e-07 rev/day^2
Epoch rev:           15196
Checksum:              305

Satellite: MET-3/5
Catalog number: 21655
Epoch time:      13192.78746393
Element set:     734
Inclination:      082.5540 deg
RA of node:       236.9129 deg
Eccentricity:    0.0014421
Arg of perigee:   071.7485 deg
Mean anomaly:     288.5205 deg
Mean motion:   13.17046859 rev/day
Decay rate:       -2.0e-07 rev/day^2
Epoch rev:            5317
Checksum:              308

Satellite: MET-2/21
Catalog number: 22782
Epoch time:      13192.77994072
Element set:     786
Inclination:      082.5485 deg
RA of node:       083.4130 deg
Eccentricity:    0.0023554
Arg of perigee:   138.4623 deg
Mean anomaly:     283.3507 deg
Mean motion:   13.83710016 rev/day
Decay rate:        4.0e-08 rev/day^2
Epoch rev:             304
Checksum:              286

Satellite: OKEAN-4
Catalog number: 23317
Epoch time:      13192.87814353
Element set:     266
Inclination:      082.5380 deg
RA of node:       026.6820 deg
Eccentricity:    0.0022371
Arg of perigee:   142.2599 deg
Mean anomaly:     351.9627 deg
Mean motion:   14.84530900 rev/day
Decay rate:       5.26e-06 rev/day^2
Epoch rev:            1260
Checksum:              285

Satellite: NOAA-14
Catalog number: 23455
Epoch time:      13192.13189333
Element set:     377
Inclination:      098.8022 deg
RA of node:       276.2084 deg
Eccentricity:    0.0008392
Arg of perigee:   290.4744 deg
Mean anomaly:     128.0833 deg
Mean motion:   14.13912973 rev/day
Decay rate:       -9.0e-08 rev/day^2
Epoch rev:           95575
Checksum:              316

Satellite: NOAA-15
Catalog number: 25338
Epoch time:      13192.70724551
Element set:     797
Inclination:      098.7248 deg
RA of node:       182.7761 deg
Eccentricity:    0.0011612
Arg of perigee:   058.8678 deg
Mean anomaly:     301.4116 deg
Mean motion:   14.25241125 rev/day
Decay rate:       2.23e-06 rev/day^2
Epoch rev:           78834
Checksum:              310

Satellite: RESURS
Catalog number: 25394
Epoch time:      13192.87581684
Element set:     418
Inclination:      098.3634 deg
RA of node:       167.5333 deg
Eccentricity:    0.0002136
Arg of perigee:   142.1347 deg
Mean anomaly:     274.4604 deg
Mean motion:   14.24333062 rev/day
Decay rate:       -2.8e-07 rev/day^2
Epoch rev:           77987
Checksum:              308

Satellite: FENGYUN1
Catalog number: 25730
Epoch time:      13191.46140346
Element set:     913
Inclination:      098.8780 deg
RA of node:       150.6874 deg
Eccentricity:    0.0025194
Arg of perigee:   346.9030 deg
Mean anomaly:     160.2281 deg
Mean motion:   14.10568584 rev/day
Decay rate:       4.02e-06 rev/day^2
Epoch rev:           72932
Checksum:              291

Satellite: OKEAN-0
Catalog number: 25860
Epoch time:      13192.13323635
Element set:     991
Inclination:      097.9918 deg
RA of node:       154.2641 deg
Eccentricity:    0.0002115
Arg of perigee:   094.7465 deg
Mean anomaly:     325.8029 deg
Mean motion:   14.74638222 rev/day
Decay rate:       2.42e-06 rev/day^2
Epoch rev:           75188
Checksum:              307

Satellite: NOAA-16
Catalog number: 26536
Epoch time:      13192.13059539
Element set:     278
Inclination:      099.0410 deg
RA of node:       245.1321 deg
Eccentricity:    0.0011420
Arg of perigee:   072.1163 deg
Mean anomaly:     341.3235 deg
Mean motion:   14.12893815 rev/day
Decay rate:       1.51e-06 rev/day^2
Epoch rev:           65995
Checksum:              280

Satellite: NOAA-17
Catalog number: 27453
Epoch time:      13192.08862610
Element set:     193
Inclination:      098.3125 deg
RA of node:       204.9024 deg
Eccentricity:    0.0013043
Arg of perigee:   096.8074 deg
Mean anomaly:     323.9664 deg
Mean motion:   14.24602540 rev/day
Decay rate:        4.7e-07 rev/day^2
Epoch rev:           57412
Checksum:              285

Satellite: NOAA-18
Catalog number: 28654
Epoch time:      13192.11498481
Element set:     680
Inclination:      099.1012 deg
RA of node:       160.6774 deg
Eccentricity:    0.0015229
Arg of perigee:   138.7710 deg
Mean anomaly:     351.9229 deg
Mean motion:   14.11836239 rev/day
Decay rate:       2.09e-06 rev/day^2
Epoch rev:           41943
Checksum:              310

Satellite: NOAA-19
Catalog number: 33591
Epoch time:      13192.13647531
Element set:     862
Inclination:      098.9037 deg
RA of node:       134.0135 deg
Eccentricity:    0.0014106
Arg of perigee:   007.4139 deg
Mean anomaly:     108.1005 deg
Mean motion:   14.11524377 rev/day
Decay rate:        5.9e-07 rev/day^2
Epoch rev:           22787
Checksum:              283



Read previous mail | Read next mail


 01.05.2026 18:15:27lGo back Go up